Mount Shasta, CA

12:15 PM PDT on April 25, 2018 (GMT -0700)
Mount Shasta

Weather History for KMHS - November, 2013

Change the Weather History Date:

Friday, November 1, 2013

  Actual Average Record
Temperature  
Mean Temperature 49 °F 45 °F  
Max Temperature 67 °F 58 °F 85 °F (1917)
Min Temperature 30 °F 33 °F 15 °F (2002)
Degree Days  
Heating Degree Days 16 20  
Month to date heating degree days 16 20  
Since 1 July heating degree days 655 684  
Cooling Degree Days 0 0  
Month to date cooling degree days 0 0  
Year to date cooling degree days 474 288  
Moisture  
Dew Point 35 °F    
Average Humidity 69    
Maximum Humidity 92    
Minimum Humidity 34    
Precipitation  
Precipitation 0.00 in 0.14 in 2.51 in (2008)
Month to date precipitation 0.00 0.14  
Year to date precipitation 9.54 30.42  
Sea Level Pressure  
Sea Level Pressure 30.23 in    
Wind  
Wind Speed 0 mph (North)    
Max Wind Speed 6 mph    
Max Gust Speed 12 mph    
Visibility 9 miles    
Events      
T = Trace of Precipitation, MM = Missing Value Source: NWS Daily Summary

Daily Weather History Graph

Daily Weather History Graph

Search for Another Location

Airport or City:

Astronomy

Nov. 01, 2013 Rise Set
Actual Time 7:41 AM PDT 6:04 PM PDT
Civil Twilight 7:12 AM PDT 6:32 PM PDT
Nautical Twilight 6:39 AM PDT 7:05 PM PDT
Astronomical Twilight 6:07 AM PDT 7:37 PM PDT
Moon 5:38 AM PDT (11/1) 5:01 PM PDT (11/1)
Length of Visible Light 11h 20m
Length of Day
10h 22m
Waning Crescent, 4% of the Moon is Illuminated
Nov 1
Waning Crescent
Nov 3
New
Nov 9
First Quarter
Nov 17
Full
Nov 25
Last Quarter

Hourly Weather History & Observations

Time (PDT) Temp. Dew Point Humidity Pressure Visibility Wind Dir Wind Speed Gust Speed Precip Events Conditions
12:56 AM 36.0 °F 33.1 °F 89% 30.28 in 9.0 mi Calm Calm - N/A   Clear
1:56 AM 35.1 °F 30.9 °F 85% 30.29 in 5.0 mi Calm Calm - N/A   Clear
2:56 AM 36.0 °F 33.1 °F 89% 30.29 in 10.0 mi Calm Calm - N/A   Clear
3:56 AM 35.1 °F 32.0 °F 89% 30.28 in 10.0 mi Calm Calm - N/A   Clear
4:56 AM 33.1 °F 30.0 °F 89% 30.28 in 10.0 mi Calm Calm - N/A   Clear
5:56 AM 32.0 °F 30.0 °F 92% 30.29 in 10.0 mi Calm Calm - N/A   Clear
6:56 AM 33.1 °F 30.0 °F 89% 30.30 in 4.0 mi Calm Calm - N/A   Clear
7:56 AM 30.9 °F 28.9 °F 92% 30.31 in 5.0 mi Calm Calm - N/A   Clear
8:56 AM 37.9 °F 33.1 °F 83% 30.31 in 10.0 mi Calm Calm - N/A   Clear
9:56 AM 46.9 °F 39.0 °F 74% 30.30 in 10.0 mi Calm Calm - N/A   Clear
10:56 AM 55.9 °F 39.9 °F 55% 30.27 in 10.0 mi Calm Calm - N/A   Clear
11:56 AM 60.1 °F 39.0 °F 46% 30.25 in 10.0 mi Calm Calm - N/A   Clear
12:56 PM 63.0 °F 37.0 °F 38% 30.23 in 10.0 mi Calm Calm - N/A   Clear
1:56 PM 66.9 °F 37.9 °F 34% 30.19 in 10.0 mi Calm Calm - N/A   Clear
2:56 PM 66.9 °F 37.9 °F 34% 30.17 in 10.0 mi Calm Calm - N/A   Clear
3:56 PM 66.0 °F 39.0 °F 37% 30.16 in 10.0 mi Calm Calm - N/A   Clear
4:56 PM 63.0 °F 37.9 °F 40% 30.17 in 10.0 mi Calm Calm - N/A   Clear
5:56 PM 57.0 °F 37.9 °F 49% 30.17 in 10.0 mi Calm Calm - N/A   Clear
6:56 PM 52.0 °F 37.9 °F 59% 30.17 in 10.0 mi Calm Calm - N/A   Clear
7:56 PM 48.0 °F 37.9 °F 68% 30.18 in 9.0 mi Calm Calm - N/A   Clear
8:56 PM 45.0 °F 37.9 °F 76% 30.17 in 7.0 mi Calm Calm - N/A   Clear
9:56 PM 41.0 °F 36.0 °F 82% 30.16 in 7.0 mi Calm Calm - N/A   Clear
10:56 PM 39.9 °F 35.1 °F 83% 30.14 in 5.0 mi Calm Calm - N/A   Haze
11:56 PM 39.0 °F 34.0 °F 82% 30.12 in 10.0 mi Calm Calm - N/A   Clear